Wind_Speed
41 42 42 43 44 44 45 45 46 45 45 46 47 47 48 47 48 48 49 49 50 51 52 53 54 55 54 53 51 50 50 50 49 48 47 46 45 45
42 43 43 44 44 45 45 46 46 47 48 48 48 48 48 48 49 50 51 52 53 54 55 55 55 55 53 52 51 51 50 49 48 47 47 46 46 45
43 44 44 44 45 45 45 46 47 48 49 48 48 48 48 49 50 51 52 53 54 56 56 55 55 54 52 51 50 49 49 48 47 46 47 47 45 44
44 44 44 44 45 46 46 47 47 48 49 48 47 48 49 50 51 53 54 54 55 55 54 54 54 52 51 50 49 49 48 47 46 47 47 46 45 43
45 45 45 45 45 47 47 48 49 49 49 48 48 49 50 51 52 53 54 54 54 54 53 53 52 51 50 48 49 48 48 47 47 47 46 45 44 44
44 45 46 46 47 47 48 49 49 49 49 49 49 49 50 51 52 52 52 52 52 52 52 52 51 50 49 48 48 48 48 48 48 47 45 44 44 44
45 45 46 47 48 49 49 49 50 50 49 50 50 51 50 51 50 51 51 51 51 52 51 51 50 49 48 47 48 48 48 47 46 45 44 43 43 42
47 47 47 47 48 49 50 50 50 50 50 50 51 51 50 50 50 51 51 50 50 50 50 50 49 48 47 47 47 47 46 46 45 43 42 42 42 42
48 48 48 49 49 50 50 50 50 50 50 51 51 51 51 51 51 50 50 50 50 50 49 48 48 48 47 47 46 45 46 45 44 43 43 42 41 40
49 49 50 50 51 51 51 49 49 49 50 51 51 51 51 51 50 49 49 49 49 50 49 47 46 47 47 47 46 45 45 45 43 42 41 41 40 40
50 50 50 51 51 51 50 50 49 50 51 52 52 51 51 51 51 50 49 49 48 48 48 47 46 45 45 46 46 46 45 44 42 41 40 40 39 38
47 48 49 50 50 50 49 50 50 50 51 51 51 51 51 50 51 50 49 49 48 48 47 46 46 46 44 45 46 46 45 43 42 40 39 38 37 37
48 48 49 49 48 49 49 50 50 50 50 49 49 49 49 50 49 50 49 49 49 48 47 46 45 45 45 44 44 44 43 42 40 39 38 37 36 37
48 48 48 48 48 48 48 49 49 49 48 48 48 48 48 48 49 48 48 48 48 48 47 46 45 44 44 42 41 41 41 39 38 37 37 36 36 37
48 48 48 48 48 48 48 47 47 47 47 47 46 46 46 47 47 47 47 47 47 46 45 44 43 43 42 41 40 39 38 38 38 37 37 37 38 38
47 47 47 47 47 46 46 46 46 46 46 45 45 45 45 45 45 45 45 44 43 43 43 43 42 41 40 40 38 37 37 36 36 36 36 36 36 37
46 46 46 45 45 45 46 46 46 45 44 44 44 43 43 43 43 42 42 42 41 40 40 40 40 40 39 38 37 37 36 35 35 34 34 34 34 35
46 45 45 45 45 45 45 44 44 43 43 43 42 42 41 41 41 41 41 40 39 39 38 38 38 38 37 37 37 36 34 34 34 34 33 33 32 33
45 45 45 45 44 44 43 42 42 42 42 40 40 40 40 40 40 39 39 38 37 37 37 37 37 37 36 36 35 35 34 33 34 34 34 33 32 32
44 44 44 44 43 42 41 40 40 39 39 39 39 39 39 38 37 36 36 36 36 36 36 36 36 36 35 34 34 34 34 33 33 33 32 31 30 30
43 42 42 41 40 39 38 38 37 37 37 37 37 37 36 35 35 34 34 34 34 34 34 34 34 33 33 32 32 32 32 32 32 32 31 29 28 28
40 40 39 37 36 35 35 35 35 35 35 35 34 34 34 34 33 33 33 32 32 32 32 32 31 31 31 30 30 30 30 30 30 30 30 27 26 25
37 36 34 33 33 33 33 33 33 33 33 33 32 33 33 32 32 31 31 30 30 30 30 30 30 30 30 30 29 29 29 29 28 27 27 26 25 24
Wind_Direction
279 281 282 284 286 288 289 289 290 291 291 292 293 293 293 293 293 294 295 297 297 298 299 299 299 300 299 297 296 296 296 295 295 295 295 294 293 292
278 280 283 284 286 288 288 290 291 291 291 292 292 292 293 293 294 295 296 298 299 299 300 300 300 300 298 297 297 297 296 295 295 294 294 293 293 292
279 280 282 283 286 287 288 290 291 291 291 292 292 292 293 294 295 296 298 299 300 300 301 300 300 300 298 297 298 297 296 295 295 295 294 293 292 291
278 280 281 283 285 287 289 290 291 292 292 292 292 293 294 295 297 298 299 300 300 300 300 300 300 299 298 298 297 297 297 296 295 295 294 293 292 291
278 279 281 283 285 286 289 291 292 292 292 292 292 293 294 296 297 299 299 300 300 301 300 300 300 299 298 297 298 297 297 296 295 295 294 293 292 291
277 279 280 282 285 287 289 291 292 292 291 291 292 293 295 296 297 298 299 299 299 300 300 300 300 300 298 298 297 297 296 295 295 295 293 292 292 291
277 279 280 282 285 287 289 291 291 292 292 292 292 293 295 296 297 298 298 299 299 299 300 300 300 299 298 297 297 297 296 295 295 294 293 291 291 291
276 278 281 283 285 287 289 290 291 291 292 292 293 293 295 296 297 298 297 297 298 298 299 299 298 298 297 297 297 296 296 296 295 294 293 292 291 291
277 279 280 282 285 287 288 289 291 292 293 293 294 294 295 296 297 297 297 298 299 299 299 298 297 297 297 297 297 296 296 296 295 294 292 292 291 291
278 279 281 282 285 286 287 288 290 292 292 294 295 295 295 295 296 297 298 298 298 299 298 297 297 297 297 296 297 297 297 296 295 293 292 291 291 291
277 279 281 283 285 286 287 288 289 290 292 294 294 295 295 295 295 296 298 299 299 299 298 297 297 296 296 296 297 297 297 296 295 293 292 292 292 292
279 280 282 284 284 285 287 288 289 290 292 292 293 294 295 295 295 296 297 298 299 299 299 298 297 297 296 295 295 296 296 295 294 293 292 292 292 292
280 281 283 284 284 285 287 288 289 290 291 291 292 293 294 294 295 295 296 298 299 300 300 299 298 299 298 296 295 295 295 294 293 292 291 291 291 292
279 281 283 284 285 286 288 289 290 290 290 291 292 293 294 294 295 295 296 297 298 299 300 300 300 300 299 297 296 295 295 294 293 292 291 291 291 293
280 281 283 283 285 286 287 289 289 290 291 292 293 294 294 295 296 296 297 298 299 299 300 301 301 301 300 299 297 296 294 293 293 292 292 293 294 295
281 282 283 284 285 286 287 288 289 290 291 292 293 294 295 296 297 298 298 299 299 299 299 300 301 301 300 300 299 298 297 295 294 294 295 295 295 295
281 281 282 283 284 285 287 288 289 289 290 291 293 294 295 296 298 298 299 300 300 299 300 300 301 302 302 301 301 300 298 298 298 298 297 297 297 297
280 281 282 283 284 286 287 288 288 289 290 292 293 294 295 297 297 297 299 299 299 300 301 301 301 301 301 301 301 300 298 298 299 299 299 299 299 299
280 281 282 283 284 286 286 286 288 289 290 291 292 294 295 297 298 298 298 299 299 300 301 302 301 301 300 301 300 299 299 298 299 299 299 298 298 298
280 281 281 282 283 284 285 286 287 288 289 290 292 294 295 297 297 298 298 299 300 301 302 303 302 302 302 302 301 301 301 301 300 300 300 300 299 300
280 280 281 281 281 281 283 284 285 287 289 291 292 294 296 297 298 298 299 300 301 302 303 304 303 303 303 304 304 305 304 304 303 303 302 301 300 301
280 280 280 279 279 280 282 284 285 287 289 290 292 293 295 297 298 298 299 300 302 304 305 306 306 307 307 307 307 306 307 306 306 306 305 303 302 302
279 279 278 277 278 280 282 284 285 287 289 289 291 293 294 296 297 298 300 302 304 306 306 307 308 308 309 309 308 308 308 308 307 307 306 306 306 307
Height
5748 5746 5745 5744 5742 5740 5738 5736 5734 5732 5731 5727 5723 5719 5715 5712 5708 5705 5701 5697 5693 5688 5684 5679 5674 5668 5663 5657 5653 5648 5644 5639 5635 5631 5627 5623 5619 5616
5738 5737 5735 5733 5732 5729 5727 5725 5722 5720 5719 5716 5712 5708 5704 5700 5696 5693 5689 5684 5680 5675 5670 5665 5659 5654 5649 5644 5639 5635 5630 5626 5622 5618 5614 5610 5607 5604
5727 5726 5725 5723 5721 5719 5716 5714 5711 5708 5706 5704 5700 5696 5692 5688 5684 5680 5676 5671 5666 5661 5656 5651 5645 5640 5635 5631 5626 5622 5617 5613 5609 5605 5601 5598 5594 5591
5717 5716 5714 5712 5710 5708 5705 5703 5700 5697 5694 5692 5688 5684 5680 5676 5672 5668 5663 5658 5653 5647 5642 5637 5632 5627 5622 5617 5613 5609 5604 5600 5597 5593 5589 5586 5582 5579
5706 5705 5703 5701 5699 5697 5694 5691 5688 5685 5682 5679 5676 5672 5668 5664 5660 5655 5650 5645 5639 5634 5628 5623 5618 5613 5608 5604 5600 5596 5592 5588 5584 5580 5576 5573 5570 5567
5694 5693 5692 5690 5688 5686 5683 5680 5676 5673 5669 5666 5664 5660 5656 5651 5647 5643 5638 5632 5627 5621 5616 5610 5606 5601 5596 5592 5588 5584 5579 5575 5571 5567 5564 5561 5558 5554
5683 5682 5680 5678 5676 5674 5671 5667 5664 5660 5657 5654 5651 5648 5644 5639 5634 5630 5625 5620 5615 5610 5605 5599 5594 5589 5584 5580 5575 5571 5567 5563 5559 5555 5552 5548 5545 5542
5671 5670 5668 5666 5664 5661 5658 5655 5651 5648 5645 5642 5638 5635 5631 5626 5621 5616 5612 5608 5604 5600 5594 5588 5582 5577 5572 5568 5563 5559 5554 5551 5547 5543 5539 5536 5533 5530
5659 5658 5656 5654 5651 5649 5646 5642 5639 5635 5632 5629 5625 5621 5618 5614 5609 5604 5599 5594 5590 5585 5581 5576 5570 5565 5560 5555 5551 5547 5543 5538 5535 5531 5527 5524 5521 5519
5647 5645 5644 5641 5639 5636 5633 5630 5627 5623 5619 5616 5612 5609 5604 5599 5595 5591 5587 5582 5577 5572 5567 5564 5559 5554 5549 5543 5539 5535 5531 5527 5523 5519 5516 5513 5510 5507
5634 5632 5631 5629 5626 5623 5620 5618 5614 5610 5606 5602 5599 5595 5590 5586 5582 5578 5574 5570 5566 5561 5556 5552 5548 5543 5538 5533 5527 5523 5519 5515 5511 5507 5504 5501 5498 5495
5621 5619 5617 5615 5612 5609 5607 5604 5601 5598 5594 5590 5586 5582 5577 5573 5569 5565 5561 5557 5553 5549 5544 5540 5535 5530 5528 5523 5517 5512 5507 5503 5499 5496 5493 5489 5486 5484
5608 5607 5604 5601 5599 5596 5594 5591 5588 5585 5581 5577 5573 5569 5565 5561 5557 5553 5549 5544 5540 5536 5531 5527 5522 5517 5513 5510 5506 5501 5496 5492 5488 5485 5482 5479 5475 5472
5595 5594 5591 5588 5586 5584 5581 5578 5575 5572 5568 5565 5561 5557 5553 5549 5545 5540 5536 5532 5527 5523 5518 5514 5510 5506 5501 5497 5494 5490 5485 5481 5478 5474 5471 5468 5465 5461
5582 5580 5578 5576 5573 5571 5568 5565 5562 5559 5556 5553 5549 5545 5541 5537 5533 5529 5524 5520 5515 5511 5506 5502 5498 5494 5489 5485 5482 5478 5475 5471 5467 5464 5461 5457 5454 5451
5568 5567 5565 5563 5561 5558 5556 5553 5550 5547 5544 5540 5536 5533 5529 5525 5521 5517 5513 5509 5505 5500 5495 5491 5486 5483 5479 5475 5471 5467 5463 5460 5457 5453 5450 5447 5443 5440
5555 5554 5552 5550 5548 5546 5543 5540 5537 5534 5531 5528 5525 5521 5518 5514 5510 5506 5502 5498 5494 5490 5486 5481 5476 5472 5468 5465 5461 5457 5453 5450 5447 5443 5441 5437 5433 5430
5542 5541 5540 5538 5536 5533 5531 5528 5525 5522 5519 5516 5513 5510 5506 5503 5499 5495 5491 5487 5484 5480 5476 5472 5468 5464 5460 5456 5452 5448 5445 5441 5437 5434 5431 5428 5425 5421
5529 5528 5527 5525 5523 5520 5518 5516 5513 5510 5508 5505 5502 5499 5495 5492 5488 5485 5481 5477 5474 5470 5466 5462 5458 5454 5451 5448 5444 5439 5435 5432 5428 5425 5421 5419 5415 5412
5516 5515 5514 5512 5510 5508 5506 5504 5502 5499 5497 5494 5491 5488 5485 5482 5478 5475 5471 5468 5465 5461 5457 5453 5449 5445 5441 5438 5435 5431 5426 5422 5419 5416 5413 5410 5406 5403
5503 5502 5500 5499 5497 5496 5494 5493 5491 5488 5486 5484 5481 5478 5475 5472 5469 5465 5462 5459 5455 5452 5448 5445 5440 5437 5433 5429 5426 5422 5418 5414 5410 5407 5404 5401 5399 5396
5491 5490 5488 5487 5486 5485 5484 5482 5480 5478 5476 5474 5471 5469 5466 5463 5460 5457 5453 5450 5447 5444 5440 5436 5433 5429 5425 5421 5418 5415 5411 5407 5402 5398 5394 5392 5390 5387
5479 5478 5477 5476 5475 5475 5473 5472 5471 5469 5467 5464 5462 5460 5457 5454 5451 5448 5445 5442 5439 5436 5432 5429 5425 5421 5417 5414 5410 5407 5403 5400 5396 5392 5389 5385 5382 5379